Weather in Sady Pridonya

Russia / Volgograd Oblast     49°03′22″N   44°02′01″E
temp.,
°C
wind,
m/s
gust,
m/s
humid.,
%
clouds,
%
prec.,
mm/h
press.,
hPa
HPBL,
m
6 august, fri
fri600:00+22e373991 0.0 1015102
03:00+21e33405 0.0 101529
06:00+21ene37415 0.0 1015187
09:00+29ese55265 0.0 10151200
12:00+32e542132 0.0 10142118
15:00+33e5418100 0.0 10122401
18:00+32e5619100 0.0 10111628
21:00+25e493087 0.0 1012143
7 august, sat
sat700:00+23e41031100 0.0 1012162
03:00+22e51233100 0.0 1012220
06:00+23e51333100 0.0 1012327
09:00+29ese6822100 0.0 1012823
12:00+34ese6616100 0.0 10102004
15:00+35e6714100 0.0 10092413
18:00+34e6816100 0.0 1009953
21:00+29e6142248 0.0 1010327
8 august, sun
sun800:00+27e615235 0.0 1010319
03:00+25e51226100 0.0 1011249
06:00+26e41226100 0.0 1012368
09:00+32ese81217100 0.0 1012856
12:00+35ese91114100 0.0 10111513
15:00+36e91113100 0.0 10112207
18:00+34ene81214100 0.0 1010737
21:00+32e9151699 0.0 1011801
9 august, mon
mon900:00+30e101722100 0.0 1011739
03:00+28e81627100 0.0 1012682
06:00+28ese81529100 0.1 1013878
09:00+31ese9112399 0.1 10131312
12:00+35ese781862 0.0 10132053
15:00+37ese67175 0.0 10122436
18:00+35se88175 0.0 10122067
21:00+28e51329100 0.1 1014262
10 august, tue
tue1000:00+27e61528100 0.1 1013376
03:00+27e6142460 0.1 1012338
06:00+26ene51224100 0.0 1012354
09:00+30ese6919100 0.0 1012648
12:00+33se5618100 0.0 10111675
15:00+30nne352365 0.0 1010432
18:00+32ne222679 0.0 10091100
21:00+26e01341 0.0 100911